Tracking 25949 objects as of 9-Aug-2022
HD Live streaming from Space Station
objects crossing your sky now

STARLINK-4013

Track STARLINK-4013 now!
10-day predictions
STARLINK-4013 is classified as:


NORAD ID: 52604
Int'l Code: 2022-052G
Perigee: 545.7 km
Apogee: 548.1 km
Inclination: 53.2 °
Period: 95.4 minutes
Semi major axis: 6917 km
RCS: Unknown
Launch date: May 14, 2022
Source: United States (US)
Launch site: AIR FORCE EASTERN TEST RANGE (AFETR)
aabbcc
Your satellite tracking list
Your tracking list is empty




NASA's NSSDC Master Catalog

Two Line Element Set (TLE):
1 52604U 22052G   22220.91667824  .00021301  00000-0  13524-2 0  9993
2 52604  53.2159  34.4162 0001782  51.6452 123.6296 15.08839816  1307
Source of the keplerian elements: AFSPC